1491984000.56,33463,13.81,73288.3,-1.11,-15.07,-15.71,0,*51
1491984001.84,33464,13.81,73290.0,-1.13,-15.21,-15.81,0,*5F
1491984003.13,33465,13.81,73280.0,-1.13,-15.35,-15.85,0,*5F
1491984004.42,33466,13.81,73278.0,-1.13,-15.35,-15.85,0,*5C
1491984005.66,33467,13.81,73270.0,-1.11,-14.93,-15.49,0,*52
1491984006.86,33468,13.81,73262.5,-1.15,-14.65,-15.11,0,*5D
1491984008.08,33469,13.81,73262.3,-1.15,-13.73,-14.19,0,*55
1491984009.31,33470,13.81,73262.3,-1.15,-13.79,-14.37,0,*5B
1491984010.58,33471,13.81,73262.5,-1.13,-14.19,-14.79,0,*57
1491984011.85,33472,13.81,73262.5,-1.13,-14.19,-14.51,0,*5E
1491984013.11,33473,13.81,73268.3,-1.11,-14.43,-14.75,0,*54
1491984014.35,33474,13.81,73264.0,-1.11,-13.83,-14.15,0,*5E
1491984015.56,33475,13.81,73262.5,-1.11,-13.73,-14.15,0,*50
1491984016.79,33476,13.81,73266.3,-1.11,-13.47,-13.87,0,*58
1491984018.0,33477,13.81,73264.0,-1.11,-13.93,-14.29,0,*53
1491984019.24,33478,13.81,73260.5,-1.07,-13.69,-14.01,0,*54
1491984020.47,33479,13.81,73266.5,-1.05,-13.15,-13.55,0,*5A
1491984021.72,33480,13.81,73268.5,-1.05,-13.55,-13.87,0,*57
1491984022.98,33481,13.81,73266.5,-1.05,-13.65,-13.97,0,*54
1491984024.21,33482,13.81,73270.5,-1.05,-13.69,-14.11,0,*52
1491984025.41,33483,13.81,73270.3,-1.03,-13.15,-13.43,0,*5E
1491984026.66,33484,13.81,73268.0,-1.01,-13.79,-14.11,0,*51
1491984027.91,33485,13.81,73266.5,-1.01,-13.47,-13.79,0,*54
1491984029.16,33486,13.81,73270.8,-1.01,-13.79,-14.11,0,*53
1491984030.37,33487,13.81,73274.5,-0.99,-13.07,-13.51,0,*68
1491984031.59,33488,13.81,73278.0,-0.97,-13.19,-13.69,0,*6D
1491984032.83,33489,13.81,73278.8,-0.99,-13.83,-14.23,0,*68
1491984034.08,33490,13.81,73282.8,-0.97,-13.19,-13.61,0,*6C
1491984035.31,33491,13.81,73284.0,-0.95,-12.83,-13.23,0,*6B
1491984036.52,33492,13.81,73280.0,-0.95,-14.15,-14.69,0,*68
1491984037.75,33493,13.81,73280.3,-0.93,-15.15,-15.71,0,*66
1491984038.97,33494,13.81,73286.3,-0.97,-15.07,-15.67,0,*61
1491984040.19,33495,13.81,73284.5,-0.97,-15.15,-15.67,0,*63
1491984041.45,33496,13.81,73284.0,-0.97,-14.05,-14.33,0,*60
1491984042.73,33497,13.81,73286.5,-0.97,-13.61,-14.05,0,*61
1491984043.93,33498,13.81,73280.3,-0.99,-14.65,-15.25,0,*60
1491984045.13,33499,13.81,73276.0,-0.99,-15.11,-15.67,0,*65
1491984046.39,33500,13.81,73278.3,-0.99,-15.35,-15.81,0,*6A
1491984047.62,33501,13.81,73276.8,-0.99,-14.97,-15.49,0,*66
1491984048.91,33502,13.81,73270.5,-1.01,-14.83,-15.39,0,*57
1491984050.18,33503,13.81,73268.3,-1.01,-14.79,-15.25,0,*5E
1491984051.44,33504,13.81,73266.8,-1.01,-13.73,-13.97,0,*5B
1491984052.66,33505,13.81,73264.5,-0.99,-13.47,-13.79,0,*6D
1491984053.9,33506,13.81,73262.5,-0.99,-14.51,-15.07,0,*61
1491984055.12,33507,13.81,73260.5,-0.97,-13.69,-13.93,0,*69
1491984056.37,33508,13.81,73260.3,-0.97,-13.47,-13.61,0,*67
1491984057.59,33509,13.81,73260.0,-0.95,-13.29,-13.51,0,*6F
1491984058.82,33510,13.81,73264.8,-0.95,-13.65,-13.97,0,*65
1491984060.08,33511,13.81,73272.0,-0.93,-14.01,-14.37,0,*6A
1491984061.34,33512,13.81,73274.0,-0.93,-14.43,-14.89,0,*6A
1491984062.59,33513,13.81,73274.5,-0.93,-15.57,-16.03,0,*6F
1491984063.82,33514,13.81,73274.8,-0.95,-15.43,-15.99,0,*6B
1491984065.04,33515,13.81,73274.5,-0.99,-16.51,-16.89,0,*64
1491984066.27,33516,13.81,73272.0,-0.99,-16.27,-16.83,0,*6C
1491984067.51,33517,13.81,73276.3,-1.03,-16.13,-16.59,0,*5F
1491984068.74,33518,13.81,73276.5,-1.03,-14.69,-15.01,0,*51
1491984069.96,33519,13.81,73280.5,-1.03,-14.15,-14.65,0,*58
1491984071.23,33520,13.81,73278.8,-1.01,-14.11,-14.51,0,*53
1491984072.49,33521,13.81,73274.5,-1.01,-13.93,-14.47,0,*58
1491984073.74,33522,13.81,73274.5,-1.01,-13.61,-14.11,0,*55
1491984075.0,33523,13.81,73268.8,-0.97,-14.79,-15.29,0,*6E
1491984076.27,33524,13.81,73270.3,-1.01,-14.51,-14.65,0,*54
1491984077.47,33525,13.81,73266.3,-0.99,-13.65,-13.93,0,*6B
1491984078.72,33526,13.81,73268.0,-0.99,-13.37,-13.83,0,*6E
1491984079.96,33527,13.81,73270.5,-0.97,-13.47,-13.79,0,*63
1491984081.19,33528,13.81,73266.3,-0.97,-13.19,-13.55,0,*69
1491984082.47,33529,13.81,73266.0,-0.97,-14.43,-14.79,0,*69
1491984083.76,33530,13.81,73266.3,-0.97,-14.05,-14.47,0,*6E
1491984085.01,33531,13.81,73262.3,-0.97,-13.87,-14.29,0,*6A
1491984086.26,33532,13.81,73256.5,-0.93,-13.51,-13.83,0,*61
1491984087.48,33533,13.81,73256.3,-0.93,-13.15,-13.51,0,*6F
1491984088.71,33534,13.81,73260.0,-0.91,-13.07,-13.37,0,*69
1491984089.91,33535,13.81,73268.8,-0.91,-13.69,-14.19,0,*6B
1491984091.17,33536,13.81,73270.0,-0.89,-13.97,-14.33,0,*68
1491984092.39,33537,13.81,73278.5,-0.91,-13.65,-13.97,0,*64
1491984093.63,33538,13.81,73280.5,-0.89,-12.97,-13.19,0,*68
1491984094.9,33539,13.81,73276.5,-0.89,-12.61,-12.83,0,*62
1491984096.15,33540,13.81,73280.5,-0.83,-12.43,-12.83,0,*66
1491984097.38,33541,13.81,73282.8,-0.81,-13.01,-13.43,0,*6F
1491984098.58,33542,13.81,73276.0,-0.81,-13.15,-13.55,0,*6E
1491984099.81,33543,13.81,73276.0,-0.81,-13.51,-13.87,0,*60
1491984101.03,33544,13.81,73268.0,-0.79,-13.55,-13.93,0,*61
1491984102.28,33545,13.81,73272.0,-0.79,-13.37,-13.65,0,*6D
1491984103.48,33546,13.81,73278.5,-0.77,-13.11,-13.51,0,*63
1491984104.74,33547,13.81,73276.3,-0.79,-12.61,-12.97,0,*61
1491984105.96,33548,13.81,73278.8,-0.75,-13.43,-13.93,0,*66
1491984107.22,33549,13.81,73280.5,-0.75,-14.05,-14.33,0,*6F
1491984108.49,33550,13.81,73278.5,-0.75,-13.61,-13.87,0,*6A
1491984109.69,33551,13.81,73280.5,-0.73,-13.19,-13.51,0,*69
1491984110.9,33552,13.81,73282.5,-0.73,-13.47,-13.79,0,*6B
1491984112.13,33553,13.81,73276.5,-0.71,-13.23,-13.55,0,*64
1491984113.37,33554,13.81,73278.0,-0.71,-13.47,-13.83,0,*6A
1491984114.62,33555,13.81,73282.3,-0.71,-12.89,-13.29,0,*68
1491984115.87,33556,13.81,73280.0,-0.69,-13.37,-13.61,0,*6A
1491984117.08,33557,13.81,73280.3,-0.69,-14.11,-14.29,0,*63
1491984118.3,33558,13.81,73280.0,-0.69,-13.29,-13.47,0,*6F
1491984119.55,33559,13.88,73282.8,-0.67,-13.33,-13.55,0,*68
1491984120.78,33560,13.81,73274.0,-0.63,-14.19,-14.61,0,*69
1491984122.01,33561,13.81,73276.5,-0.63,-13.93,-14.19,0,*62
1491984123.26,33562,13.81,73280.0,-0.67,-14.37,-14.79,0,*6A
1491984124.52,33563,13.81,73272.3,-0.67,-14.79,-15.11,0,*6E
1491984125.75,33564,13.88,73276.8,-0.69,-14.83,-15.11,0,*62
1491984126.97,33565,13.81,73276.3,-0.69,-13.87,-14.11,0,*61
1491984128.25,33566,13.81,73282.0,-0.67,-14.55,-14.97,0,*6A
1491984129.48,33567,13.81,73280.3,-0.69,-15.63,-16.13,0,*6F
1491984130.75,33568,13.81,73276.3,-0.71,-15.01,-15.35,0,*6A
1491984131.98,33569,13.81,73280.5,-0.71,-14.89,-15.29,0,*67
1491984133.2,33570,13.81,73282.3,-0.73,-14.89,-15.35,0,*60
1491984134.43,33571,13.81,73282.5,-0.73,-14.93,-15.29,0,*67
1491984135.69,33572,13.81,73284.5,-0.75,-15.07,-15.39,0,*6F
1491984136.91,33573,13.81,73286.8,-0.73,-14.65,-15.01,0,*66
1491984138.16,33574,13.81,73284.5,-0.75,-14.89,-15.35,0,*62
1491984139.44,33575,13.81,73284.0,-0.75,-15.39,-15.89,0,*6E
1491984140.69,33576,13.88,73286.5,-0.75,-15.49,-15.81,0,*62
1491984141.93,33577,13.81,73284.0,-0.77,-14.79,-15.25,0,*6D
1491984143.19,33578,13.81,73276.3,-0.77,-14.55,-14.97,0,*64
1491984144.39,33579,13.81,73278.5,-0.77,-14.11,-14.37,0,*6F
1491984145.6,33580,13.81,73282.8,-0.77,-14.23,-14.65,0,*6F
1491984146.86,33581,13.88,73280.8,-0.75,-14.37,-14.75,0,*68
1491984148.11,33582,13.81,73272.8,-0.77,-14.93,-15.43,0,*63
1491984149.35,33583,13.81,73276.5,-0.77,-15.81,-16.23,0,*65
1491984150.58,33584,13.81,73272.3,-0.77,-15.25,-15.57,0,*6C
1491984151.85,33585,13.88,73272.5,-0.79,-14.83,-15.25,0,*6B
1491984153.08,33586,13.81,73272.0,-0.79,-15.11,-15.53,0,*63
1491984154.31,33587,13.81,73276.0,-0.81,-16.13,-16.45,0,*60
1491984155.54,33588,13.88,73284.0,-0.81,-15.75,-16.17,0,*6B
1491984156.8,33589,13.81,73276.5,-0.83,-15.15,-15.57,0,*69
1491984158.05,33590,13.81,73278.0,-0.85,-15.53,-15.89,0,*66
1491984159.29,33591,13.81,73274.3,-0.83,-14.61,-14.89,0,*60
1491984160.54,33592,13.81,73272.5,-0.83,-14.23,-14.43,0,*63
1491984161.79,33593,13.81,73280.5,-0.85,-15.07,-15.43,0,*62
1491984163.07,33594,13.81,73278.0,-0.83,-15.85,-16.27,0,*68
1491984164.31,33595,13.81,73270.8,-0.83,-16.37,-16.75,0,*64
1491984165.58,33596,13.81,73260.5,-0.85,-16.31,-16.65,0,*66
1491984166.81,33597,13.81,73250.0,-0.91,-16.59,-17.03,0,*6D
1491984168.07,33598,13.81,73248.0,-0.91,-15.85,-16.13,0,*60
1491984169.28,33599,13.81,73258.5,-0.91,-14.19,-14.37,0,*61
1491984170.54,33600,13.81,73264.3,-0.91,-14.47,-14.79,0,*63
1491984171.77,33601,13.81,73272.0,-0.89,-14.37,-14.65,0,*61
1491984172.97,33602,13.88,73276.5,-0.91,-14.65,-15.07,0,*69
1491984174.18,33603,13.81,73272.8,-0.91,-15.07,-15.49,0,*67
1491984175.42,33604,13.81,73272.8,-0.91,-14.97,-15.35,0,*63
1491984176.69,33605,13.81,73272.3,-0.89,-14.93,-15.35,0,*6F
1491984177.95,33606,13.81,73272.0,-0.91,-15.39,-15.57,0,*60
1491984179.18,33607,13.81,73270.8,-0.91,-15.49,-15.81,0,*6D
1491984180.4,33608,13.81,73268.8,-0.91,-14.69,-14.93,0,*63
1491984181.63,33609,13.81,73274.8,-0.91,-14.79,-15.07,0,*6F
1491984182.86,33610,13.88,73272.0,-0.91,-14.93,-15.25,0,*63
1491984184.09,33611,13.81,73272.0,-0.91,-14.33,-14.51,0,*6A
1491984185.33,33612,13.81,73284.0,-0.91,-15.21,-15.57,0,*6C
1491984186.57,33613,13.81,73280.3,-0.91,-16.55,-17.03,0,*6E
1491984187.77,33614,13.81,73276.3,-0.95,-17.31,-17.69,0,*62
1491984189.0,33615,13.81,73268.8,-0.95,-16.31,-16.59,0,*60
1491984190.28,33616,13.88,73278.0,-0.97,-15.43,-15.81,0,*61
1491984191.53,33617,13.81,73274.8,-0.97,-15.35,-15.63,0,*6D
1491984192.78,33618,13.81,73272.0,-0.97,-14.61,-14.93,0,*6C
1491984194.03,33619,13.81,73270.8,-0.97,-14.43,-14.61,0,*60
1491984195.28,33620,13.81,73266.3,-0.97,-13.93,-14.05,0,*62
1491984196.52,33621,13.88,73268.3,-0.95,-14.01,-14.29,0,*63
1491984197.76,33622,13.88,73274.0,-0.93,-13.73,-13.83,0,*63
1491984199.02,33623,13.81,73268.5,-0.93,-14.01,-14.15,0,*68
1491984200.25,33624,13.81,73272.8,-0.91,-13.69,-13.79,0,*69
1491984201.48,33625,13.81,73272.8,-0.89,-13.33,-13.47,0,*63
1491984202.74,33626,13.88,73282.8,-0.83,-13.55,-13.61,0,*6E
1491984204.0,33627,13.81,73278.8,-0.83,-13.97,-14.11,0,*61
1491984205.26,33628,13.81,73280.8,-0.83,-13.01,-13.11,0,*66
1491984206.54,33629,13.88,73286.5,-0.79,-12.65,-12.79,0,*6E
1491984207.8,33630,13.88,73284.8,-0.79,-13.19,-13.33,0,*63
1491984209.04,33631,13.88,73286.0,-0.79,-13.69,-13.79,0,*6B
1491984210.24,33632,13.88,73284.5,-0.77,-13.55,-13.65,0,*64
1491984211.49,33633,13.88,73282.3,-0.75,-13.47,-13.61,0,*60
1491984212.74,33634,13.81,73284.5,-0.75,-13.47,-13.61,0,*67
1491984214.02,33635,13.88,73282.0,-0.75,-14.79,-15.01,0,*6C
1491984215.24,33636,13.88,73280.5,-0.73,-15.01,-15.29,0,*6D
1491984216.5,33637,13.88,73278.3,-0.75,-15.89,-16.03,0,*61
1491984217.7,33638,13.88,73280.8,-0.77,-15.71,-15.99,0,*6B
1491984218.93,33639,13.88,73282.0,-0.79,-15.53,-15.71,0,*62
1491984220.18,33640,13.88,73284.5,-0.79,-15.95,-16.23,0,*62
1491984221.44,33641,13.81,73282.8,-0.79,-15.43,-15.71,0,*6C
1491984222.67,33642,13.88,73284.0,-0.81,-15.15,-15.39,0,*67
1491984223.92,33643,13.81,73286.0,-0.79,-15.39,-15.67,0,*64
1491984225.13,33644,13.81,73276.5,-0.81,-15.49,-15.75,0,*60
1491984226.41,33645,13.81,73274.5,-0.83,-15.85,-16.13,0,*60
1491984227.63,33646,13.88,73268.5,-0.85,-16.03,-16.37,0,*6E
1491984228.85,33647,13.88,73270.5,-0.85,-16.03,-16.37,0,*6F
1491984230.09,33648,13.88,73272.0,-0.91,-16.13,-16.55,0,*60
1491984231.29,33649,13.88,73272.8,-0.91,-16.45,-16.59,0,*6E
1491984232.53,33650,13.88,73278.8,-0.91,-16.09,-16.37,0,*66
1491984233.78,33651,13.88,73278.8,-0.95,-15.89,-16.17,0,*6A
1491984234.99,33652,13.88,73274.8,-0.95,-15.63,-15.99,0,*68
1491984236.22,33653,13.88,73276.8,-0.95,-15.63,-15.89,0,*68
1491984237.47,33654,13.88,73274.3,-0.95,-15.89,-16.13,0,*6B
1491984238.71,33655,13.88,73272.0,-0.95,-15.75,-16.17,0,*6D
1491984239.91,33656,13.88,73264.5,-0.99,-16.55,-16.83,0,*6E
1491984241.15,33657,13.88,73270.5,-0.97,-15.75,-15.95,0,*64
1491984242.38,33658,13.81,73266.5,-0.99,-15.67,-15.85,0,*67
1491984243.61,33659,13.88,73266.0,-0.99,-15.67,-15.81,0,*62
1491984244.84,33660,13.81,73258.5,-0.99,-15.21,-15.49,0,*6E
1491984246.06,33661,13.88,73262.5,-0.99,-15.11,-15.21,0,*62
1491984247.27,33662,13.88,73270.5,-0.99,-14.61,-14.65,0,*66
1491984248.53,33663,13.88,73276.3,-0.99,-14.83,-14.83,0,*63
1491984249.82,33664,13.88,73282.0,-0.97,-14.47,-14.47,0,*6A
1491984251.05,33665,13.88,73282.3,-0.97,-14.15,-14.19,0,*67
1491984252.33,33666,13.88,73282.3,-0.97,-15.21,-15.43,0,*6C
1491984253.6,33667,13.88,73280.5,-0.97,-14.47,-14.43,0,*6D
1491984254.84,33668,13.88,73280.0,-0.97,-14.19,-14.19,0,*66
1491984256.04,33669,13.88,73280.0,-0.95,-13.69,-13.73,0,*6E
1491984257.28,33670,13.88,73278.5,-0.93,-14.69,-14.75,0,*66
1491984258.56,33671,13.88,73276.3,-0.93,-14.43,-14.51,0,*69
1491984259.81,33672,13.88,73278.0,-0.93,-14.55,-14.69,0,*66
1491984261.03,33673,13.81,73276.0,-0.89,-14.19,-14.11,0,*6B
1491984262.27,33674,13.88,73282.8,-0.91,-14.11,-14.05,0,*68
1491984263.49,33675,13.88,73284.8,-0.89,-14.33,-14.33,0,*65
1491984264.77,33676,13.88,73284.8,-0.89,-14.47,-14.51,0,*61
1491984266.03,33677,13.88,73280.5,-0.89,-14.47,-14.19,0,*6C
1491984267.27,33678,13.88,73280.8,-0.85,-13.93,-13.87,0,*61
1491984268.55,33679,13.88,73284.5,-0.85,-14.01,-14.01,0,*65
1491984269.79,33680,13.88,73280.8,-0.83,-14.23,-14.15,0,*60
1491984271.03,33681,13.88,73278.3,-0.83,-14.23,-14.23,0,*64
1491984272.25,33682,13.88,73274.5,-0.81,-14.97,-15.11,0,*6A
1491984273.49,33683,13.88,73270.8,-0.83,-15.11,-15.29,0,*6D
1491984274.73,33684,13.88,73266.3,-0.83,-14.23,-14.15,0,*64
1491984276.0,33685,13.88,73258.3,-0.83,-14.43,-14.43,0,*60
1491984277.24,33686,13.88,73256.3,-0.83,-14.11,-14.23,0,*62
1491984278.5,33687,13.88,73256.0,-0.83,-14.75,-14.89,0,*61
1491984279.76,33688,13.88,73256.3,-0.81,-13.97,-13.87,0,*6E
1491984281.04,33689,13.88,73258.8,-0.79,-13.97,-13.97,0,*69
1491984282.28,33690,13.88,73260.5,-0.79,-14.19,-14.19,0,*61
1491984283.51,33691,13.88,73264.3,-0.79,-14.19,-14.19,0,*60
1491984284.8,33692,13.88,73260.3,-0.79,-14.05,-14.05,0,*63
1491984286.05,33693,13.88,73260.3,-0.77,-13.97,-14.05,0,*60
1491984287.25,33694,13.88,73268.8,-0.77,-14.33,-14.37,0,*6F
1491984288.51,33695,13.88,73270.0,-0.75,-13.93,-14.01,0,*64
1491984289.74,33696,13.88,73286.8,-0.75,-14.89,-14.89,0,*6B
1491984290.94,33697,13.88,73286.0,-0.77,-15.95,-15.99,0,*64
1491984292.17,33698,13.88,73284.3,-0.77,-15.25,-15.35,0,*66
1491984293.39,33699,13.88,73282.5,-0.81,-15.01,-15.15,0,*6A
1491984294.62,33700,13.88,73292.0,-0.81,-15.89,-15.99,0,*6F
1491984295.85,33701,13.88,73292.0,-0.81,-15.75,-15.89,0,*6C
1491984297.13,33702,13.88,73288.5,-0.83,-15.57,-15.57,0,*6E
1491984298.37,33703,13.88,73284.0,-0.83,-15.15,-15.25,0,*6C
1491984299.59,33704,13.88,73280.5,-0.85,-15.49,-15.67,0,*62
1491984300.83,33705,13.88,73278.0,-0.83,-15.25,-15.49,0,*63
1491984302.06,33706,13.88,73270.0,-0.85,-15.75,-15.95,0,*62
1491984303.31,33707,13.88,73270.5,-0.85,-15.81,-15.95,0,*68
1491984304.54,33708,13.88,73268.0,-0.85,-15.49,-15.53,0,*69
1491984305.76,33709,13.88,73266.3,-0.89,-15.53,-15.67,0,*68
1491984307.04,33710,13.88,73270.0,-0.89,-16.09,-16.27,0,*6B
1491984308.26,33711,13.88,73270.3,-0.91,-16.23,-16.37,0,*6A
1491984309.46,33712,13.81,73260.8,-0.91,-15.95,-15.99,0,*60
1491984310.75,33713,13.88,73264.5,-0.93,-16.13,-16.17,0,*6B
1491984311.98,33714,13.88,73262.3,-0.95,-15.39,-15.53,0,*62
1491984313.25,33715,13.88,73268.3,-0.93,-14.97,-14.97,0,*69
1491984314.53,33716,13.88,73260.3,-0.93,-13.87,-13.83,0,*6E
1491984315.76,33717,13.88,73266.3,-0.93,-14.23,-14.15,0,*6E
1491984316.99,33718,13.88,73268.0,-0.93,-14.23,-14.23,0,*64
1491984318.22,33719,13.88,73270.0,-0.89,-13.69,-13.65,0,*62
1491984319.46,33720,13.88,73270.8,-0.89,-13.83,-13.69,0,*60
1491984320.74,33721,13.88,73274.5,-0.89,-13.79,-13.97,0,*65
1491984321.96,33722,13.88,73272.3,-0.85,-13.73,-13.55,0,*6E
1491984323.22,33723,13.88,73274.3,-0.83,-13.83,-13.73,0,*62
1491984324.5,33724,13.88,73268.3,-0.83,-13.87,-13.83,0,*6E
1491984325.76,33725,13.88,73270.3,-0.83,-13.83,-13.69,0,*6F
1491984326.96,33726,13.88,73268.0,-0.81,-13.55,-13.51,0,*6E
1491984328.19,33727,13.88,73270.3,-0.79,-13.51,-13.47,0,*6B
1491984329.42,33728,13.88,73268.8,-0.79,-14.11,-14.19,0,*6B
1491984330.62,33729,13.88,73274.3,-0.77,-13.55,-13.69,0,*63
1491984331.87,33730,13.88,73280.3,-0.77,-14.93,-14.97,0,*60
1491984333.06,33731,13.88,73276.8,-0.77,-14.65,-14.69,0,*69
1491984334.28,33732,13.88,73276.0,-0.77,-15.07,-15.21,0,*62
1491984335.54,33733,13.88,73278.5,-0.77,-15.81,-15.81,0,*67
1491984336.79,33734,13.88,73276.3,-0.81,-16.27,-16.31,0,*6E
1491984338.0,33735,13.88,73274.0,-0.81,-15.63,-15.75,0,*6F
1491984339.25,33736,13.88,73272.3,-0.83,-16.03,-16.13,0,*68
1491984340.5,33737,13.88,73272.3,-0.83,-16.31,-16.37,0,*6E
1491984341.78,33738,13.88,73272.0,-0.85,-16.17,-16.23,0,*66
1491984343.0,33739,13.88,73272.8,-0.85,-16.37,-16.37,0,*60
1491984344.23,33740,13.88,73272.5,-0.91,-15.71,-15.81,0,*64
1491984345.46,33741,13.88,73274.3,-0.91,-16.23,-16.37,0,*6F
1491984346.65,33742,13.88,73276.0,-0.91,-15.99,-15.99,0,*69
1491984347.91,33743,13.88,73268.8,-0.93,-15.39,-15.53,0,*66
1491984349.11,33744,13.88,73272.0,-0.95,-15.15,-15.15,0,*6B
1491984350.35,33745,13.88,73272.5,-0.95,-14.51,-14.69,0,*61
1491984351.57,33746,13.88,73276.8,-0.95,-14.89,-15.01,0,*68
1491984352.83,33747,13.88,73274.8,-0.95,-14.55,-14.75,0,*6A
1491984354.03,33748,13.88,73272.8,-0.95,-14.37,-14.29,0,*68
1491984355.32,33749,13.88,73270.3,-0.93,-13.97,-14.01,0,*68
1491984356.58,33750,13.88,73274.0,-0.91,-14.47,-14.83,0,*62
1491984357.79,33751,13.88,73272.0,-0.91,-15.49,-15.53,0,*60
1491984359.04,33752,13.88,73268.3,-0.91,-14.79,-14.83,0,*6D
1491984360.28,33753,13.88,73262.3,-0.95,-15.25,-15.39,0,*60
1491984361.53,33754,13.88,73268.3,-0.95,-15.43,-15.57,0,*6F
1491984362.77,33755,13.88,73262.5,-0.95,-15.25,-15.43,0,*6B
1491984364.0,33756,13.88,73262.3,-0.95,-15.25,-15.43,0,*68
1491984365.21,33757,13.88,73258.5,-0.95,-15.15,-15.15,0,*69
1491984366.45,33758,13.88,73262.5,-0.95,-14.97,-14.83,0,*63
1491984367.71,33759,13.88,73264.5,-0.95,-14.43,-14.55,0,*60
1491984368.96,33760,13.88,73266.0,-0.95,-14.51,-14.43,0,*6E
1491984370.18,33761,13.88,73266.5,-0.93,-13.65,-13.65,0,*6A
1491984371.41,33762,13.88,73270.3,-0.93,-13.51,-13.43,0,*6A
1491984372.67,33763,13.88,73270.3,-0.89,-13.51,-13.61,0,*60
1491984373.89,33764,13.88,73276.3,-0.91,-13.79,-13.65,0,*60
1491984375.11,33765,13.88,73274.0,-0.89,-13.11,-13.07,0,*62
1491984376.39,33766,13.88,73276.3,-0.83,-13.83,-13.87,0,*68
1491984377.63,33767,13.88,73278.5,-0.83,-14.23,-14.15,0,*68
1491984378.88,33768,13.88,73278.5,-0.85,-13.87,-13.73,0,*6F
1491984380.14,33769,13.88,73278.5,-0.83,-13.37,-13.23,0,*66
1491984381.37,33770,13.88,73270.3,-0.81,-13.61,-13.73,0,*6A
1491984382.64,33771,13.88,73274.0,-0.79,-14.79,-14.83,0,*6A
1491984383.91,33772,13.88,73278.5,-0.81,-15.39,-15.39,0,*6B
1491984385.14,33773,13.88,73276.8,-0.83,-15.63,-15.75,0,*6F
1491984386.4,33774,13.88,73282.5,-0.83,-15.57,-15.71,0,*6B
1491984387.65,33775,13.88,73280.0,-0.85,-15.81,-15.75,0,*63
1491984388.87,33776,13.88,73282.0,-0.85,-15.53,-15.67,0,*6C
1491984390.1,33777,13.88,73282.8,-0.91,-15.35,-15.53,0,*6F
1491984391.36,33778,13.88,73280.5,-0.91,-15.35,-15.39,0,*6C
1491984392.58,33779,13.88,73280.3,-0.89,-15.49,-15.67,0,*64
1491984393.81,33780,13.88,73286.0,-0.91,-15.95,-16.13,0,*6A
1491984395.06,33781,13.88,73284.8,-0.95,-15.39,-15.57,0,*6A
1491984396.29,33782,13.88,73288.5,-0.93,-15.11,-15.29,0,*6C
1491984397.52,33783,13.88,73286.8,-0.95,-15.01,-15.25,0,*66
1491984398.79,33784,13.88,73286.5,-0.93,-14.75,-14.97,0,*6D
1491984400.01,33785,13.88,73280.0,-0.95,-14.69,-14.75,0,*6B
1491984401.24,33786,13.88,73280.0,-0.95,-14.55,-14.69,0,*6A
1491984402.52,33787,13.88,73274.0,-0.93,-14.43,-14.51,0,*61
1491984403.8,33788,13.88,73266.3,-0.93,-14.75,-14.83,0,*64
1491984405.03,33789,13.88,73266.5,-0.93,-15.11,-15.25,0,*6B
1491984406.25,33790,13.88,73270.5,-0.95,-15.43,-15.63,0,*60
1491984407.51,33791,13.88,73274.8,-0.95,-15.43,-15.57,0,*66
1491984408.72,33792,13.88,73272.0,-0.95,-15.15,-15.29,0,*6F
1491984409.97,33793,13.88,73272.8,-0.97,-15.57,-15.67,0,*60
1491984411.2,33794,13.88,73276.3,-0.97,-15.15,-15.29,0,*6B
1491984412.42,33795,13.88,73276.0,-0.99,-15.25,-15.49,0,*61
1491984413.69,33796,13.88,73274.8,-0.97,-14.93,-15.01,0,*6C
1491984414.94,33797,13.88,73268.8,-0.99,-14.79,-14.79,0,*69
1491984416.17,33798,13.88,73268.5,-0.99,-15.07,-15.35,0,*67
1491984417.37,33799,13.88,73276.0,-0.99,-14.61,-14.65,0,*63
1491984418.62,33800,13.88,73274.5,-0.97,-14.65,-14.79,0,*6B
1491984419.87,33801,13.88,73282.3,-0.99,-14.79,-14.93,0,*6D
1491984421.08,33802,13.88,73280.5,-0.99,-15.07,-15.25,0,*6A
1491984422.31,33803,13.88,73282.0,-0.99,-15.35,-15.63,0,*68
1491984423.54,33804,13.88,73280.3,-0.99,-15.81,-15.99,0,*65
1491984424.74,33805,13.88,73280.8,-0.99,-15.07,-15.11,0,*6A
1491984425.96,33806,13.88,73278.5,-1.03,-14.97,-15.11,0,*53
1491984427.19,33807,13.88,73276.0,-1.03,-14.97,-15.11,0,*52
1491984428.45,33808,13.88,73268.5,-1.01,-14.69,-14.83,0,*54
1491984429.68,33809,13.88,73268.8,-1.03,-14.55,-14.69,0,*5C
1491984430.91,33810,13.88,73262.8,-1.01,-14.33,-14.37,0,*5D
1491984432.21,33811,13.88,73250.0,-1.01,-14.47,-14.79,0,*55
1491984433.45,33812,13.88,73246.8,-1.01,-14.11,-14.19,0,*53
1491984434.68,33813,13.88,73254.3,-0.99,-14.05,-14.11,0,*6F
1491984435.9,33814,13.88,73260.8,-0.99,-13.61,-13.73,0,*6E
1491984437.17,33815,13.88,73256.8,-0.99,-14.47,-14.51,0,*6B
1491984438.39,33816,13.88,73256.0,-0.97,-13.73,-13.73,0,*61
1491984439.64,33817,13.88,73260.5,-0.97,-13.79,-13.69,0,*61
1491984440.86,33818,13.88,73252.8,-0.97,-13.07,-13.07,0,*6F
1491984442.09,33819,13.88,73254.3,-0.93,-13.11,-13.11,0,*6A
1491984443.29,33820,13.88,73266.3,-0.95,-12.97,-12.89,0,*69
1491984444.52,33821,13.88,73266.3,-0.91,-12.97,-12.83,0,*66
1491984445.72,33822,13.88,73264.8,-0.91,-13.11,-13.11,0,*60
1491984446.95,33823,13.88,73266.3,-0.89,-14.23,-14.19,0,*61
1491984448.17,33824,13.88,73266.3,-0.89,-13.51,-13.47,0,*68
1491984449.41,33825,13.88,73270.8,-0.83,-13.51,-13.43,0,*67
1491984450.64,33826,13.88,73278.3,-0.83,-12.97,-12.97,0,*67
1491984451.89,33827,13.88,73278.5,-0.83,-13.73,-13.83,0,*69
1491984453.18,33828,13.88,73288.0,-0.83,-13.61,-13.61,0,*69
1491984454.42,33829,13.88,73280.0,-0.83,-15.25,-15.29,0,*64
1491984455.67,33830,13.88,73286.0,-0.85,-15.29,-15.35,0,*6B
1491984456.92,33831,13.88,73278.5,-0.85,-16.03,-16.09,0,*6D
1491984458.15,33832,13.88,73274.8,-0.89,-15.49,-15.53,0,*63
1491984459.39,33833,13.88,73280.0,-0.91,-15.21,-15.35,0,*65
1491984460.62,33834,13.88,73288.8,-0.91,-14.55,-14.69,0,*68
1491984461.88,33835,13.88,73286.0,-0.91,-13.97,-13.97,0,*66
1491984463.09,33836,13.88,73294.3,-0.91,-14.23,-14.33,0,*64
1491984464.32,33837,13.88,73288.5,-0.91,-14.55,-14.69,0,*6B
1491984465.58,33838,13.88,73284.5,-0.91,-14.83,-14.93,0,*6A
1491984466.78,33839,13.88,73282.3,-0.91,-15.07,-15.25,0,*6A
1491984468.04,33840,13.88,73286.8,-0.93,-14.83,-14.89,0,*6C
1491984469.29,33841,13.88,73274.8,-0.93,-15.01,-15.15,0,*62
1491984470.52,33842,13.88,73262.0,-0.95,-15.25,-15.39,0,*6F
1491984471.75,33843,13.88,73264.8,-0.95,-15.39,-15.63,0,*6C
1491984473.0,33844,13.88,73280.8,-0.97,-16.17,-16.37,0,*64
1491984474.23,33845,13.88,73266.5,-0.99,-16.27,-16.37,0,*68
1491984475.49,33846,13.88,73276.0,-1.01,-15.71,-15.81,0,*55
1491984476.73,33847,13.88,73266.5,-1.03,-15.89,-16.03,0,*58
1491984477.96,33848,13.88,73268.8,-1.03,-16.27,-16.41,0,*56
1491984479.2,33849,13.88,73270.3,-1.07,-16.03,-16.17,0,*56
1491984480.47,33850,13.88,73266.3,-1.05,-15.29,-15.43,0,*55
1491984481.71,33851,13.88,73264.3,-1.07,-16.03,-16.09,0,*50
1491984482.93,33852,13.88,73268.8,-1.11,-16.31,-16.45,0,*5D
1491984484.2,33853,13.88,73270.5,-1.11,-16.17,-16.17,0,*5F
1491984485.46,33854,13.88,73266.8,-1.13,-15.75,-15.85,0,*55
1491984486.71,33855,13.88,73274.3,-1.15,-15.67,-15.81,0,*55
1491984487.94,33856,13.88,73272.3,-1.17,-15.53,-15.81,0,*53
1491984489.19,33857,13.88,73276.0,-1.17,-15.43,-15.57,0,*58
1491984490.42,33858,13.88,73270.8,-1.17,-15.43,-15.67,0,*54
1491984491.63,33859,13.88,73274.3,-1.17,-15.15,-15.25,0,*50
1491984492.83,33860,13.88,73272.5,-1.17,-15.53,-15.67,0,*5E
1491984494.06,33861,13.88,73270.8,-1.17,-15.25,-15.39,0,*55
1491984495.32,33862,13.88,73270.0,-1.21,-15.35,-15.35,0,*5E